Regional Weather Roundup
Issued by NWS

Home | Current Version | Previous Version | Graphics & Text | Print | Product List | Glossary On
Versions: 1 2 3 4 5 6 7 8 9 10 11 12 13 14 15 16 17 18 19 20 21 22 23 24 25 26 27 28 29 30 31 32 33 34 35 36 37 38 39 40 41 42 43 44 45 46 47 48 49 50
000
ASUS43 KDMX 020607
RWRIA

WEATHER ROUNDUP FOR IOWA
NATIONAL WEATHER SERVICE DES MOINES IA
1200 AM CST MON MAR 02 2015

NOTE: "FAIR" INDICATES FEW OR NO CLOUDS BELOW 12,000 FEET WITH NO
SIGNIFICANT WEATHER AND/OR OBSTRUCTIONS TO VISIBILITY.

* - THESE STATIONS ARE NOT NWS STATIONS...THUS NOT UNDER NWS
QUALITY CONTROL.  THEY ALSO DO NOT REPORT WEATHER SUCH
AS PRECIPITATION OR FOG.

IAZ001>003-012>014-020>022-031>034-043>046-020700-
   NORTHWEST IOWA

CITY           SKY/WX    TMP DP  RH WIND       PRES   REMARKS
CARROLL *      PTCLDY    18  10  73 W6        30.47R WCI   9
CHEROKEE *     PTCLDY    16  13  88 NE3       30.46R
DENISON *      CLEAR     16  12  86 SE3       30.45S
LE MARS *      CLEAR     12  10  92 S5        30.47R WCI   4
ORANGE CITY *  CLEAR     19  14  79 N5        30.44S WCI  13
SHELDON *      CLEAR     14  12  92 N6        30.44R WCI   5
SIOUX CITY     PTCLDY    16  11  80 SW5       30.48R WCI   9
6HR MIN TEMP:  15; 6HR MAX TEMP:  37;

SPENCER          N/A     10   7  87 NW7       30.45R WCI  -1
6HR MIN TEMP:  10; 6HR MAX TEMP:  26;

STORM LAKE *   CLEAR     16  10  79 N6        30.45R WCI   7
$$

IAZ055>058-069>071-079>083-090>094-020700-
   SOUTHWEST IOWA

CITY           SKY/WX    TMP DP  RH WIND       PRES   REMARKS
ATLANTIC *     PTCLDY    16  12  86 N6        30.47S WCI   7
AUDUBON *      CLEAR     12   9  85 CALM      30.46F
CLARINDA *     CLEAR     19  16  86 N5        30.50R WCI  13
COUNCIL BLFS * CLEAR     27  16  63 NE5       30.46S WCI  21
CRESTON *      CLEAR     21  16  79 W5        30.46S WCI  15
HARLAN  *      CLEAR     16  16 100 N3        30.51S
LAMONI         CLOUDY    26  18  71 S5        30.46R WCI  20
6HR MIN TEMP:  24; 6HR MAX TEMP:  31;

RED OAK *      MOCLDY    21  18  86 NE3       30.48S
SHENANDOAH *   CLEAR     19  16  86 CALM      30.49S
$$

IAZ047>049-059>061-072>074-084-020700-
   CENTRAL IOWA

CITY           SKY/WX    TMP DP  RH WIND       PRES   REMARKS
AMES           CLEAR     20  12  71 NW7       30.45R WCI  11
6HR MIN TEMP:  15; 6HR MAX TEMP:  27;

ANKENY *       CLEAR     21  14  73 W7        30.47S WCI  13
CHARITON *     CLOUDY    23  18  80 SW5       30.46R WCI  17
DES MOINES     PTCLDY    21  13  71 NW6       30.47R WCI  13
6HR MIN TEMP:  21; 6HR MAX TEMP:  30;

GRINNELL*      PTCLDY    15  11  82 W6        30.45R WCI   7
KNOXVILLE *    CLEAR     21  14  73 SW6       30.45R WCI  14
MARSHALLTOWN   PTCLDY    11   7  84 NW9       30.44R WCI  -2
6HR MIN TEMP:  10; 6HR MAX TEMP:  20;

PELLA *        PTCLDY    21  17  85 W6        30.48R WCI  13
PERRY *          N/A     16  12  86 W8        30.47S WCI   5
$$

IAZ004>006-015-016-023>025-035-036-020700-
   NORTH CENTRAL IOWA

CITY           SKY/WX    TMP DP  RH WIND       PRES   REMARKS
ALGONA *       CLEAR     18 N/A N/A NW10      30.43S WCI   6
CLARION *      CLEAR     12  10  92 NW7       30.44R WCI   2
ESTHERVILLE    CLEAR     12   8  84 W9        30.42S WCI   0
6HR MIN TEMP:  11; 6HR MAX TEMP:  25;

FORT DODGE *   CLEAR     18  10  73 CALM      30.46R
MASON CITY     CLEAR     17  11  77 NW14      30.42R WCI   3
6HR MIN TEMP:  14; 6HR MAX TEMP:  22;

FOREST CITY *  CLEAR     19  10  68 NW9       30.41S WCI   9
IOWA FALLS *     N/A     12   9  85 W10       30.45R WCI  -1
$$

IAZ007>011-017>019-026>030-037>042-050>054-066-020700-
   NORTHEAST IOWA

CITY           SKY/WX    TMP DP  RH WIND       PRES   REMARKS
CEDAR RAPIDS   PTCLDY    14   9  80 SW9       30.42R WCI   2
6HR MIN TEMP:  11; 6HR MAX TEMP:  21;

CHARLES CITY * CLEAR     16  10  79 W10       30.40S WCI   3
CLINTON *      PTCLDY     9   3  78 W8        30.43S WCI  -4
DECORAH *      CLEAR     16   9  73 VRB6      30.37R WCI   7
DUBUQUE        CLEAR     14   9  80 W14       30.38R WCI  -1
6HR MIN TEMP:   5; 6HR MAX TEMP:  20;

MONTICELLO *   CLEAR     14  10  85 CALM      30.41R
OELWEIN *      CLEAR      9   7  92 W10       30.41R WCI  -6
WATERLOO       CLEAR     16  11  80 W7        30.43R WCI   6
6HR MIN TEMP:  13; 6HR MAX TEMP:  21;

$$

IAZ064-065-067-068-078-020700-
   EAST CENTRAL IOWA

CITY           SKY/WX    TMP DP  RH WIND       PRES   REMARKS
DAVENPORT      PTCLDY     7   2  80 W8        30.43R WCI  -6
6HR MIN TEMP:   7; 6HR MAX TEMP:  21;

IOWA CITY      PTCLDY    15  10  80 W3        30.47R
6HR MIN TEMP:   8; 6HR MAX TEMP:  26;

MT. PLEASANT * MOCLDY    16  14  90 SW6       30.47R WCI   7
MUSCATINE *    CLEAR     18  12  79 CALM      30.47R
QUAD CITIES    PTCLDY     9   4  80 SW3       30.44R
6HR MIN TEMP:   9; 6HR MAX TEMP:  26;

$$

IAZ062-063-075>077-085>089-095>099-020700-
   SOUTHEAST IOWA

CITY           SKY/WX    TMP DP  RH WIND       PRES   REMARKS
BURLINGTON     CLOUDY    15  13  91 W3        30.46R FOG
6HR MIN TEMP:  14; 6HR MAX TEMP:  23;

FAIRFIELD *    CLEAR     18  12  79 SW5       30.47R WCI  11
FORT MADISON * CLEAR     19  16  86 CALM      30.47R
KEOKUK *       CLEAR     21  18  86 W5        30.47R WCI  15
OSKALOOSA *      N/A     20  15  82 W6        30.47R WCI  12
CENTERVILLE *  CLEAR     23  19  86 SW5       30.48R WCI  17
OTTUMWA        MOCLDY    20  14  77 SW6       30.46R WCI  12
6HR MIN TEMP:  15; 6HR MAX TEMP:  29;

WASHINGTON *   CLEAR     18  18 100 W6        30.46R WCI   9
$$

ABBREVIATIONS USED IN REMARKS
   TC - TEMPERATURES IN CELSIUS
  WCI - WIND CHILL INDEX
   HX - HEAT INDEX
  VSB - VISIBILITY
$$



USA.gov is the U.S. government's official web portal to all federal, state and local government web resources and services.